Time,TemperatureF,DewpointF,PressureIn,WindDirection,WindDirectionDegrees,WindSpeedMPH,WindSpeedGustMPH,Humidity,HourlyPrecipIn,Conditions,Clouds,dailyrainin,SoftwareType,DateUTC
2013-02-09 00:02:00,33.2,28.0,30.36,ENE,63,3.0,4.0,81,0.00,,,0.00,Wunderground v.1.15,2013-02-09 06:02:00,
2013-02-09 00:08:00,33.2,28.0,30.36,ESE,122,5.0,6.0,81,0.00,,,0.00,Wunderground v.1.15,2013-02-09 06:08:00,
2013-02-09 00:14:00,33.2,27.7,30.36,ESE,121,1.0,5.0,80,0.00,,,0.00,Wunderground v.1.15,2013-02-09 06:14:00,
2013-02-09 00:20:00,33.1,27.6,30.36,East,81,1.0,5.0,80,0.00,,,0.00,Wunderground v.1.15,2013-02-09 06:20:00,
2013-02-09 00:25:00,33.1,27.9,30.36,ESE,111,3.0,5.0,81,0.00,,,0.00,Wunderground v.1.15,2013-02-09 06:25:00,
2013-02-09 00:30:00,33.1,27.9,30.36,SE,143,2.0,3.0,81,0.00,,,0.00,Wunderground v.1.15,2013-02-09 06:30:00,
2013-02-09 00:36:00,33.1,27.9,30.36,ESE,104,4.0,6.0,81,0.00,,,0.00,Wunderground v.1.15,2013-02-09 06:36:00,
2013-02-09 00:42:00,33.1,27.9,30.37,ESE,116,3.0,4.0,81,0.00,,,0.00,Wunderground v.1.15,2013-02-09 06:42:00,
2013-02-09 00:47:00,33.1,27.9,30.37,ENE,73,3.0,7.0,81,0.00,,,0.00,Wunderground v.1.15,2013-02-09 06:47:00,
2013-02-09 00:53:00,33.1,27.9,30.37,ENE,72,2.0,3.0,81,0.00,,,0.00,Wunderground v.1.15,2013-02-09 06:53:00,
2013-02-09 00:58:00,33.2,28.3,30.36,ESE,104,4.0,4.0,82,0.00,,,0.00,Wunderground v.1.15,2013-02-09 06:58:00,
2013-02-09 01:03:00,33.1,27.9,30.37,ESE,114,9.0,9.0,81,0.00,,,0.00,Wunderground v.1.15,2013-02-09 07:03:00,
2013-02-09 01:09:00,33.0,27.8,30.36,ENE,68,3.0,9.0,81,0.00,,,0.00,Wunderground v.1.15,2013-02-09 07:09:00,
2013-02-09 01:15:00,33.0,27.8,30.36,SE,126,3.0,5.0,81,0.00,,,0.00,Wunderground v.1.15,2013-02-09 07:15:00,
2013-02-09 01:20:00,33.0,28.1,30.36,ENE,74,4.0,4.0,82,0.00,,,0.00,Wunderground v.1.15,2013-02-09 07:20:00,
2013-02-09 01:26:00,33.0,27.8,30.36,ESE,113,5.0,6.0,81,0.00,,,0.00,Wunderground v.1.15,2013-02-09 07:26:00,
2013-02-09 01:32:00,33.0,27.8,30.36,SE,128,4.0,4.0,81,0.00,,,0.00,Wunderground v.1.15,2013-02-09 07:32:00,
2013-02-09 01:38:00,32.9,27.7,30.36,SSE,149,2.0,5.0,81,0.00,,,0.00,Wunderground v.1.15,2013-02-09 07:38:00,
2013-02-09 01:43:00,32.9,27.7,30.36,East,101,1.0,4.0,81,0.00,,,0.00,Wunderground v.1.15,2013-02-09 07:43:00,
2013-02-09 01:49:00,32.8,27.6,30.36,ESE,120,2.0,6.0,81,0.00,,,0.00,Wunderground v.1.15,2013-02-09 07:49:00,
2013-02-09 01:55:00,32.8,27.6,30.36,ESE,122,4.0,5.0,81,0.00,,,0.00,Wunderground v.1.15,2013-02-09 07:55:00,
2013-02-09 02:00:00,32.8,27.6,30.36,ENE,77,2.0,4.0,81,0.00,,,0.00,Wunderground v.1.15,2013-02-09 08:00:00,
2013-02-09 02:05:00,32.6,27.4,30.35,ESE,123,4.0,8.0,81,0.00,,,0.00,Wunderground v.1.15,2013-02-09 08:05:00,
2013-02-09 02:10:00,32.6,27.7,30.35,ESE,103,4.0,4.0,82,0.00,,,0.00,Wunderground v.1.15,2013-02-09 08:10:00,
2013-02-09 02:15:00,32.5,27.6,30.35,ENE,60,5.0,7.0,82,0.00,,,0.00,Wunderground v.1.15,2013-02-09 08:15:00,
2013-02-09 02:20:00,32.5,27.6,30.35,NE,50,4.0,7.0,82,0.00,,,0.00,Wunderground v.1.15,2013-02-09 08:20:00,
2013-02-09 02:25:00,32.5,27.6,30.35,East,86,3.0,7.0,82,0.00,,,0.00,Wunderground v.1.15,2013-02-09 08:25:00,
2013-02-09 02:30:00,32.5,27.6,30.35,East,98,3.0,4.0,82,0.00,,,0.00,Wunderground v.1.15,2013-02-09 08:30:00,
2013-02-09 02:35:00,32.5,27.6,30.35,ENE,64,4.0,8.0,82,0.00,,,0.00,Wunderground v.1.15,2013-02-09 08:35:00,
2013-02-09 02:40:00,32.4,27.5,30.35,East,101,5.0,11.0,82,0.00,,,0.00,Wunderground v.1.15,2013-02-09 08:40:00,
2013-02-09 02:45:00,32.4,27.5,30.35,East,93,4.0,11.0,82,0.00,,,0.00,Wunderground v.1.15,2013-02-09 08:45:00,
2013-02-09 02:50:00,32.3,27.4,30.35,East,87,5.0,5.0,82,0.00,,,0.00,Wunderground v.1.15,2013-02-09 08:50:00,
2013-02-09 02:55:00,32.3,27.4,30.35,East,81,4.0,9.0,82,0.00,,,0.00,Wunderground v.1.15,2013-02-09 08:55:00,
2013-02-09 03:00:00,32.3,27.4,30.35,ENE,71,4.0,5.0,82,0.00,,,0.00,Wunderground v.1.15,2013-02-09 09:00:00,
2013-02-09 03:05:00,32.4,27.8,30.35,ESE,120,3.0,9.0,83,0.00,,,0.00,Wunderground v.1.15,2013-02-09 09:05:00,
2013-02-09 03:10:00,32.4,27.8,30.35,ESE,117,2.0,4.0,83,0.00,,,0.00,Wunderground v.1.15,2013-02-09 09:10:00,
2013-02-09 03:15:00,32.4,27.8,30.36,NE,43,2.0,4.0,83,0.00,,,0.00,Wunderground v.1.15,2013-02-09 09:15:00,
2013-02-09 03:20:00,32.4,27.8,30.36,East,101,2.0,2.0,83,0.00,,,0.00,Wunderground v.1.15,2013-02-09 09:20:00,
2013-02-09 03:25:00,32.4,27.8,30.36,ESE,105,3.0,6.0,83,0.00,,,0.00,Wunderground v.1.15,2013-02-09 09:25:00,
2013-02-09 03:30:00,32.5,27.9,30.36,NE,52,2.0,4.0,83,0.00,,,0.00,Wunderground v.1.15,2013-02-09 09:30:00,
2013-02-09 03:35:00,32.5,27.9,30.36,SE,129,1.0,6.0,83,0.00,,,0.00,Wunderground v.1.15,2013-02-09 09:35:00,
2013-02-09 03:40:00,32.5,27.9,30.36,ENE,74,4.0,4.0,83,0.00,,,0.00,Wunderground v.1.15,2013-02-09 09:40:00,
2013-02-09 03:45:00,32.4,27.8,30.36,East,93,4.0,6.0,83,0.00,,,0.00,Wunderground v.1.15,2013-02-09 09:45:00,
2013-02-09 03:50:00,32.4,27.8,30.36,East,84,2.0,3.0,83,0.00,,,0.00,Wunderground v.1.15,2013-02-09 09:50:00,
2013-02-09 03:55:00,32.4,27.8,30.36,ENE,75,3.0,5.0,83,0.00,,,0.00,Wunderground v.1.15,2013-02-09 09:55:00,
2013-02-09 04:00:00,32.4,27.8,30.36,East,98,1.0,3.0,83,0.00,,,0.00,Wunderground v.1.15,2013-02-09 10:00:00,
2013-02-09 04:05:00,32.4,27.8,30.36,NNE,30,4.0,6.0,83,0.00,,,0.00,Wunderground v.1.15,2013-02-09 10:05:00,
2013-02-09 04:10:00,32.4,27.8,30.36,East,85,1.0,2.0,83,0.00,,,0.00,Wunderground v.1.15,2013-02-09 10:10:00,
2013-02-09 04:15:00,32.4,27.8,30.36,ESE,103,2.0,5.0,83,0.00,,,0.00,Wunderground v.1.15,2013-02-09 10:15:00,
2013-02-09 04:20:00,32.4,27.8,30.36,East,84,2.0,5.0,83,0.00,,,0.00,Wunderground v.1.15,2013-02-09 10:20:00,
2013-02-09 04:25:00,32.4,27.8,30.37,ESE,110,3.0,6.0,83,0.00,,,0.00,Wunderground v.1.15,2013-02-09 10:25:00,
2013-02-09 04:30:00,32.4,27.8,30.37,ESE,113,2.0,2.0,83,0.00,,,0.00,Wunderground v.1.15,2013-02-09 10:30:00,
2013-02-09 04:35:00,32.4,27.8,30.37,ESE,120,2.0,7.0,83,0.00,,,0.00,Wunderground v.1.15,2013-02-09 10:35:00,
2013-02-09 04:40:00,32.3,27.4,30.37,East,82,2.0,3.0,82,0.00,,,0.00,Wunderground v.1.15,2013-02-09 10:40:00,
2013-02-09 04:45:00,32.1,27.2,30.37,ESE,114,3.0,7.0,82,0.00,,,0.00,Wunderground v.1.15,2013-02-09 10:45:00,
2013-02-09 04:50:00,32.1,27.5,30.37,ENE,67,3.0,4.0,83,0.00,,,0.00,Wunderground v.1.15,2013-02-09 10:50:00,
2013-02-09 04:55:00,32.1,27.5,30.37,East,101,3.0,6.0,83,0.00,,,0.00,Wunderground v.1.15,2013-02-09 10:55:00,
2013-02-09 05:00:00,32.1,27.5,30.38,ESE,110,2.0,4.0,83,0.00,,,0.00,Wunderground v.1.15,2013-02-09 11:00:00,
2013-02-09 05:05:00,32.1,27.2,30.37,ENE,68,3.0,6.0,82,0.00,,,0.00,Wunderground v.1.15,2013-02-09 11:05:00,
2013-02-09 05:10:00,32.0,27.1,30.37,ENE,75,4.0,7.0,82,0.00,,,0.00,Wunderground v.1.15,2013-02-09 11:10:00,
2013-02-09 05:15:00,32.0,27.1,30.38,ENE,75,3.0,8.0,82,0.00,,,0.00,Wunderground v.1.15,2013-02-09 11:15:00,
2013-02-09 05:20:00,32.0,27.1,30.38,East,93,3.0,5.0,82,0.00,,,0.00,Wunderground v.1.15,2013-02-09 11:20:00,
2013-02-09 05:25:00,32.0,27.1,30.38,ESE,107,3.0,6.0,82,0.00,,,0.00,Wunderground v.1.15,2013-02-09 11:25:00,
2013-02-09 05:30:00,32.0,27.1,30.38,NE,51,1.0,3.0,82,0.00,,,0.00,Wunderground v.1.15,2013-02-09 11:30:00,
2013-02-09 05:35:00,32.0,27.1,30.38,East,79,6.0,7.0,82,0.00,,,0.00,Wunderground v.1.15,2013-02-09 11:35:00,
2013-02-09 05:40:00,32.0,27.1,30.38,ENE,73,3.0,4.0,82,0.00,,,0.00,Wunderground v.1.15,2013-02-09 11:40:00,
2013-02-09 05:45:00,32.0,27.1,30.38,East,100,3.0,5.0,82,0.00,,,0.00,Wunderground v.1.15,2013-02-09 11:45:00,
2013-02-09 05:50:00,32.0,27.4,30.38,SE,129,1.0,3.0,83,0.00,,,0.00,Wunderground v.1.15,2013-02-09 11:50:00,
2013-02-09 05:55:00,31.9,27.0,30.38,ESE,115,2.0,9.0,82,0.00,,,0.00,Wunderground v.1.15,2013-02-09 11:55:00,
2013-02-09 06:00:00,31.8,27.2,30.38,ENE,75,4.0,4.0,83,0.00,,,0.00,Wunderground v.1.15,2013-02-09 12:00:00,
2013-02-09 06:05:00,31.8,26.9,30.37,ESE,115,4.0,7.0,82,0.00,,,0.00,Wunderground v.1.15,2013-02-09 12:05:00,
2013-02-09 06:10:00,31.8,27.2,30.38,East,79,3.0,3.0,83,0.00,,,0.00,Wunderground v.1.15,2013-02-09 12:10:00,
2013-02-09 06:15:00,31.7,26.8,30.38,ESE,106,4.0,8.0,82,0.00,,,0.00,Wunderground v.1.15,2013-02-09 12:15:00,
2013-02-09 06:20:00,31.7,27.1,30.38,ENE,77,2.0,3.0,83,0.00,,,0.00,Wunderground v.1.15,2013-02-09 12:20:00,
2013-02-09 06:25:00,31.8,27.2,30.38,East,86,6.0,9.0,83,0.00,,,0.00,Wunderground v.1.15,2013-02-09 12:25:00,
2013-02-09 06:30:00,31.8,27.2,30.38,ESE,102,2.0,3.0,83,0.00,,,0.00,Wunderground v.1.15,2013-02-09 12:30:00,
2013-02-09 06:35:00,31.8,27.2,30.39,East,98,3.0,9.0,83,0.00,,,0.00,Wunderground v.1.15,2013-02-09 12:35:00,
2013-02-09 06:40:00,31.8,27.2,30.38,SE,141,4.0,4.0,83,0.00,,,0.00,Wunderground v.1.15,2013-02-09 12:40:00,
2013-02-09 06:45:00,31.8,27.2,30.38,ESE,115,5.0,5.0,83,0.00,,,0.00,Wunderground v.1.15,2013-02-09 12:45:00,
2013-02-09 06:50:00,31.8,26.9,30.38,East,98,2.0,4.0,82,0.00,,,0.00,Wunderground v.1.15,2013-02-09 12:50:00,
2013-02-09 06:55:00,31.8,26.9,30.38,East,100,5.0,10.0,82,0.00,,,0.00,Wunderground v.1.15,2013-02-09 12:55:00,
2013-02-09 07:00:00,31.8,26.9,30.39,East,100,4.0,7.0,82,0.00,,,0.00,Wunderground v.1.15,2013-02-09 13:00:00,
2013-02-09 07:05:00,31.9,27.0,30.39,ENE,71,3.0,8.0,82,0.00,,,0.00,Wunderground v.1.15,2013-02-09 13:05:00,
2013-02-09 07:10:00,32.0,27.1,30.39,SSE,156,5.0,9.0,82,0.00,,,0.00,Wunderground v.1.15,2013-02-09 13:10:00,
2013-02-09 07:15:00,32.0,27.4,30.38,SE,127,7.0,9.0,83,0.00,,,0.00,Wunderground v.1.15,2013-02-09 13:15:00,
2013-02-09 07:20:00,32.0,27.1,30.38,ESE,108,1.0,5.0,82,0.00,,,0.00,Wunderground v.1.15,2013-02-09 13:20:00,
2013-02-09 07:25:00,32.1,27.2,30.38,SE,143,1.0,7.0,82,0.00,,,0.00,Wunderground v.1.15,2013-02-09 13:25:00,
2013-02-09 07:30:00,32.1,27.2,30.38,East,96,3.0,8.0,82,0.00,,,0.00,Wunderground v.1.15,2013-02-09 13:30:00,
2013-02-09 07:35:00,32.2,27.3,30.38,ESE,108,2.0,8.0,82,0.00,,,0.00,Wunderground v.1.15,2013-02-09 13:35:00,
2013-02-09 07:40:00,32.4,27.5,30.38,SE,127,3.0,4.0,82,0.00,,,0.00,Wunderground v.1.15,2013-02-09 13:40:00,
2013-02-09 07:45:00,32.4,27.2,30.38,SE,139,1.0,6.0,81,0.00,,,0.00,Wunderground v.1.15,2013-02-09 13:45:00,
2013-02-09 07:50:00,32.4,27.5,30.38,East,94,1.0,3.0,82,0.00,,,0.00,Wunderground v.1.15,2013-02-09 13:50:00,
2013-02-09 07:55:00,32.5,27.6,30.38,South,177,2.0,8.0,82,0.00,,,0.00,Wunderground v.1.15,2013-02-09 13:55:00,
2013-02-09 08:01:00,32.5,27.3,30.38,SE,143,2.0,6.0,81,0.00,,,0.00,Wunderground v.1.15,2013-02-09 14:01:00,
2013-02-09 08:06:00,32.4,26.9,30.38,ESE,114,5.0,12.0,80,0.00,,,0.00,Wunderground v.1.15,2013-02-09 14:06:00,
2013-02-09 08:11:00,32.5,27.3,30.38,ESE,103,7.0,7.0,81,0.00,,,0.00,Wunderground v.1.15,2013-02-09 14:11:00,
2013-02-09 08:16:00,32.6,27.4,30.38,SE,129,2.0,10.0,81,0.00,,,0.00,Wunderground v.1.15,2013-02-09 14:16:00,
2013-02-09 08:21:00,32.6,27.1,30.38,SE,130,1.0,5.0,80,0.00,,,0.00,Wunderground v.1.15,2013-02-09 14:21:00,
2013-02-09 08:26:00,32.7,27.5,30.38,SSE,149,2.0,7.0,81,0.00,,,0.00,Wunderground v.1.15,2013-02-09 14:26:00,
2013-02-09 08:31:00,32.8,27.3,30.39,SE,132,5.0,9.0,80,0.00,,,0.00,Wunderground v.1.15,2013-02-09 14:31:00,
2013-02-09 08:36:00,32.8,27.3,30.40,SE,146,7.0,9.0,80,0.00,,,0.00,Wunderground v.1.15,2013-02-09 14:36:00,
2013-02-09 08:41:00,33.0,27.8,30.40,ESE,117,4.0,4.0,81,0.00,,,0.00,Wunderground v.1.15,2013-02-09 14:41:00,
2013-02-09 08:46:00,33.2,28.0,30.40,South,172,4.0,7.0,81,0.00,,,0.00,Wunderground v.1.15,2013-02-09 14:46:00,
2013-02-09 08:51:00,33.3,28.1,30.40,South,171,0.0,4.0,81,0.00,,,0.00,Wunderground v.1.15,2013-02-09 14:51:00,
2013-02-09 08:56:00,33.7,28.2,30.40,SE,138,3.0,8.0,80,0.00,,,0.00,Wunderground v.1.15,2013-02-09 14:56:00,
2013-02-09 09:01:00,33.7,27.9,30.40,SE,133,3.0,5.0,79,0.00,,,0.00,Wunderground v.1.15,2013-02-09 15:01:00,
2013-02-09 09:06:00,33.9,28.1,30.39,SE,137,4.0,5.0,79,0.00,,,0.00,Wunderground v.1.15,2013-02-09 15:06:00,
2013-02-09 09:11:00,34.0,28.2,30.40,South,170,2.0,3.0,79,0.00,,,0.00,Wunderground v.1.15,2013-02-09 15:11:00,
2013-02-09 09:16:00,34.1,28.0,30.40,South,174,5.0,7.0,78,0.00,,,0.00,Wunderground v.1.15,2013-02-09 15:16:00,
2013-02-09 09:21:00,34.1,28.0,30.39,ESE,112,5.0,5.0,78,0.00,,,0.00,Wunderground v.1.15,2013-02-09 15:21:00,
2013-02-09 09:26:00,34.1,28.0,30.39,East,101,5.0,8.0,78,0.00,,,0.00,Wunderground v.1.15,2013-02-09 15:26:00,
2013-02-09 09:31:00,34.3,28.2,30.39,ESE,116,7.0,7.0,78,0.00,,,0.00,Wunderground v.1.15,2013-02-09 15:31:00,
2013-02-09 09:36:00,34.7,28.5,30.39,SSE,167,3.0,7.0,78,0.00,,,0.00,Wunderground v.1.15,2013-02-09 15:36:00,
2013-02-09 09:41:00,35.3,29.1,30.38,ESE,115,3.0,4.0,78,0.00,,,0.00,Wunderground v.1.15,2013-02-09 15:41:00,
2013-02-09 09:46:00,35.7,28.9,30.38,SE,138,9.0,10.0,76,0.00,,,0.00,Wunderground v.1.15,2013-02-09 15:46:00,
2013-02-09 09:51:00,35.6,28.5,30.38,ESE,107,8.0,9.0,75,0.00,,,0.00,Wunderground v.1.15,2013-02-09 15:51:00,
2013-02-09 09:56:00,35.8,28.6,30.38,SE,132,0.0,9.0,75,0.00,,,0.00,Wunderground v.1.15,2013-02-09 15:56:00,
2013-02-09 10:01:00,35.9,28.7,30.38,SE,146,4.0,7.0,75,0.00,,,0.00,Wunderground v.1.15,2013-02-09 16:01:00,
2013-02-09 10:06:00,36.2,29.0,30.38,ESE,120,2.0,7.0,75,0.00,,,0.00,Wunderground v.1.15,2013-02-09 16:06:00,
2013-02-09 10:11:00,36.5,29.0,30.37,SSE,153,7.0,8.0,74,0.00,,,0.00,Wunderground v.1.15,2013-02-09 16:11:00,
2013-02-09 10:16:00,36.8,29.3,30.37,SE,132,2.0,9.0,74,0.00,,,0.00,Wunderground v.1.15,2013-02-09 16:16:00,
2013-02-09 10:21:00,36.8,29.0,30.37,ESE,119,2.0,9.0,73,0.00,,,0.00,Wunderground v.1.15,2013-02-09 16:21:00,
2013-02-09 10:26:00,37.2,29.3,30.36,ENE,77,4.0,9.0,73,0.00,,,0.00,Wunderground v.1.15,2013-02-09 16:26:00,
2013-02-09 10:31:00,37.4,29.2,30.36,ENE,64,4.0,5.0,72,0.00,,,0.00,Wunderground v.1.15,2013-02-09 16:31:00,
2013-02-09 10:36:00,38.4,30.2,30.36,SSE,150,3.0,8.0,72,0.00,,,0.00,Wunderground v.1.15,2013-02-09 16:36:00,
2013-02-09 10:41:00,38.6,29.7,30.36,SE,132,8.0,9.0,70,0.00,,,0.00,Wunderground v.1.15,2013-02-09 16:41:00,
2013-02-09 10:46:00,38.7,30.1,30.35,South,176,6.0,11.0,71,0.00,,,0.00,Wunderground v.1.15,2013-02-09 16:46:00,
2013-02-09 10:51:00,39.3,30.3,30.35,ESE,119,6.0,12.0,70,0.00,,,0.00,Wunderground v.1.15,2013-02-09 16:51:00,
2013-02-09 10:56:00,39.5,30.2,30.35,SSE,159,4.0,12.0,69,0.00,,,0.00,Wunderground v.1.15,2013-02-09 16:56:00,
2013-02-09 11:01:00,39.9,29.8,30.35,SE,133,5.0,9.0,67,0.00,,,0.00,Wunderground v.1.15,2013-02-09 17:01:00,
2013-02-09 11:06:00,40.0,29.6,30.35,SSE,148,9.0,11.0,66,0.00,,,0.00,Wunderground v.1.15,2013-02-09 17:06:00,
2013-02-09 11:11:00,40.0,29.6,30.35,East,99,5.0,8.0,66,0.00,,,0.00,Wunderground v.1.15,2013-02-09 17:11:00,
2013-02-09 11:16:00,40.6,30.1,30.34,SSE,154,7.0,13.0,66,0.00,,,0.00,Wunderground v.1.15,2013-02-09 17:16:00,
2013-02-09 11:21:00,41.0,29.4,30.34,SE,145,3.0,11.0,63,0.00,,,0.00,Wunderground v.1.15,2013-02-09 17:21:00,
2013-02-09 11:26:00,41.2,29.5,30.33,SSE,154,4.0,11.0,63,0.00,,,0.00,Wunderground v.1.15,2013-02-09 17:26:00,
2013-02-09 11:31:00,41.6,29.5,30.33,SSE,150,5.0,11.0,62,0.00,,,0.00,Wunderground v.1.15,2013-02-09 17:31:00,
2013-02-09 11:36:00,41.6,30.3,30.33,SSE,148,2.0,11.0,64,0.00,,,0.00,Wunderground v.1.15,2013-02-09 17:36:00,
2013-02-09 11:42:00,42.0,29.9,30.33,SE,145,4.0,8.0,62,0.00,,,0.00,Wunderground v.1.15,2013-02-09 17:42:00,
2013-02-09 11:47:00,42.4,30.3,30.33,East,100,4.0,8.0,62,0.00,,,0.00,Wunderground v.1.15,2013-02-09 17:47:00,
2013-02-09 11:52:00,42.6,30.9,30.32,ESE,105,1.0,4.0,63,0.00,,,0.00,Wunderground v.1.15,2013-02-09 17:52:00,
2013-02-09 11:57:00,43.1,30.1,30.32,ENE,77,4.0,8.0,60,0.00,,,0.00,Wunderground v.1.15,2013-02-09 17:57:00,
2013-02-09 12:02:00,43.1,31.0,30.31,SE,132,8.0,13.0,62,0.00,,,0.00,Wunderground v.1.15,2013-02-09 18:02:00,
2013-02-09 12:07:00,43.4,30.0,30.31,SE,125,6.0,13.0,59,0.00,,,0.00,Wunderground v.1.15,2013-02-09 18:07:00,
2013-02-09 12:12:00,43.4,30.0,30.30,SSE,155,6.0,9.0,59,0.00,,,0.00,Wunderground v.1.15,2013-02-09 18:12:00,
2013-02-09 12:17:00,43.7,30.7,30.30,SE,132,3.0,9.0,60,0.00,,,0.00,Wunderground v.1.15,2013-02-09 18:17:00,
2013-02-09 12:22:00,44.4,31.0,30.30,South,184,3.0,11.0,59,0.00,,,0.00,Wunderground v.1.15,2013-02-09 18:22:00,
2013-02-09 12:27:00,44.5,30.2,30.29,SE,128,3.0,11.0,57,0.00,,,0.00,Wunderground v.1.15,2013-02-09 18:27:00,
2013-02-09 12:32:00,44.7,31.2,30.30,SSE,151,1.0,6.0,59,0.00,,,0.00,Wunderground v.1.15,2013-02-09 18:32:00,
2013-02-09 12:37:00,45.3,30.5,30.29,SSE,158,4.0,10.0,56,0.00,,,0.00,Wunderground v.1.15,2013-02-09 18:37:00,
2013-02-09 12:42:00,45.1,31.2,30.29,SSE,149,4.0,7.0,58,0.00,,,0.00,Wunderground v.1.15,2013-02-09 18:42:00,
2013-02-09 12:47:00,45.9,31.5,30.29,East,91,3.0,7.0,57,0.00,,,0.00,Wunderground v.1.15,2013-02-09 18:47:00,
2013-02-09 12:52:00,46.2,30.9,30.29,SSE,150,7.0,7.0,55,0.00,,,0.00,Wunderground v.1.15,2013-02-09 18:52:00,
2013-02-09 12:57:00,46.5,31.2,30.28,ESE,118,6.0,10.0,55,0.00,,,0.00,Wunderground v.1.15,2013-02-09 18:57:00,
2013-02-09 13:02:00,46.7,31.4,30.28,SE,129,2.0,5.0,55,0.00,,,0.00,Wunderground v.1.15,2013-02-09 19:02:00,
2013-02-09 13:07:00,46.8,31.0,30.28,SSE,156,3.0,8.0,54,0.00,,,0.00,Wunderground v.1.15,2013-02-09 19:07:00,
2013-02-09 13:12:00,46.8,31.0,30.27,SSE,153,4.0,8.0,54,0.00,,,0.00,Wunderground v.1.15,2013-02-09 19:12:00,
2013-02-09 13:17:00,47.1,31.3,30.27,SE,126,3.0,8.0,54,0.00,,,0.00,Wunderground v.1.15,2013-02-09 19:17:00,
2013-02-09 13:22:00,47.7,31.4,30.27,SW,233,4.0,6.0,53,0.00,,,0.00,Wunderground v.1.15,2013-02-09 19:22:00,
2013-02-09 13:27:00,48.1,30.8,30.26,East,79,1.0,7.0,51,0.00,,,0.00,Wunderground v.1.15,2013-02-09 19:27:00,
2013-02-09 13:32:00,48.3,31.0,30.26,SSE,155,4.0,5.0,51,0.00,,,0.00,Wunderground v.1.15,2013-02-09 19:32:00,
2013-02-09 13:37:00,48.1,31.3,30.26,SSE,158,1.0,6.0,52,0.00,,,0.00,Wunderground v.1.15,2013-02-09 19:37:00,
2013-02-09 13:42:00,48.1,31.3,30.26,South,172,2.0,3.0,52,0.00,,,0.00,Wunderground v.1.15,2013-02-09 19:42:00,
2013-02-09 13:47:00,48.3,31.5,30.26,West,260,0.0,4.0,52,0.00,,,0.00,Wunderground v.1.15,2013-02-09 19:47:00,
2013-02-09 13:52:00,48.5,31.2,30.25,SSE,152,4.0,4.0,51,0.00,,,0.00,Wunderground v.1.15,2013-02-09 19:52:00,
2013-02-09 13:57:00,48.1,30.3,30.25,East,101,2.0,6.0,50,0.00,,,0.00,Wunderground v.1.15,2013-02-09 19:57:00,
2013-02-09 14:02:00,48.0,31.2,30.25,SSE,167,6.0,6.0,52,0.00,,,0.00,Wunderground v.1.15,2013-02-09 20:02:00,
2013-02-09 14:07:00,48.0,31.2,30.24,South,171,0.0,6.0,52,0.00,,,0.00,Wunderground v.1.15,2013-02-09 20:07:00,
2013-02-09 14:12:00,48.7,31.4,30.24,SE,138,4.0,5.0,51,0.00,,,0.00,Wunderground v.1.15,2013-02-09 20:12:00,
2013-02-09 14:17:00,48.5,31.2,30.24,ESE,120,2.0,9.0,51,0.00,,,0.00,Wunderground v.1.15,2013-02-09 20:17:00,
2013-02-09 14:22:00,48.6,31.8,30.24,ESE,118,4.0,6.0,52,0.00,,,0.00,Wunderground v.1.15,2013-02-09 20:22:00,
2013-02-09 14:27:00,48.6,31.8,30.23,SE,141,5.0,7.0,52,0.00,,,0.00,Wunderground v.1.15,2013-02-09 20:27:00,
2013-02-09 14:32:00,49.0,31.6,30.23,SE,124,3.0,6.0,51,0.00,,,0.00,Wunderground v.1.15,2013-02-09 20:32:00,
2013-02-09 14:37:00,49.0,32.6,30.24,SW,221,4.0,6.0,53,0.00,,,0.00,Wunderground v.1.15,2013-02-09 20:37:00,
2013-02-09 14:42:00,49.6,31.7,30.24,East,98,2.0,5.0,50,0.00,,,0.00,Wunderground v.1.15,2013-02-09 20:42:00,
2013-02-09 14:47:00,49.2,31.3,30.23,ENE,72,1.0,7.0,50,0.00,,,0.00,Wunderground v.1.15,2013-02-09 20:47:00,
2013-02-09 14:52:00,49.3,32.4,30.24,WNW,300,0.0,3.0,52,0.00,,,0.00,Wunderground v.1.15,2013-02-09 20:52:00,
2013-02-09 14:57:00,49.3,31.4,30.24,SE,129,0.0,6.0,50,0.00,,,0.00,Wunderground v.1.15,2013-02-09 20:57:00,
2013-02-09 15:02:00,49.1,32.2,30.24,NE,45,0.0,3.0,52,0.00,,,0.00,Wunderground v.1.15,2013-02-09 21:02:00,
2013-02-09 15:07:00,49.3,32.4,30.24,SSE,149,1.0,4.0,52,0.00,,,0.00,Wunderground v.1.15,2013-02-09 21:07:00,
2013-02-09 15:12:00,49.6,32.2,30.24,ESE,120,0.0,4.0,51,0.00,,,0.00,Wunderground v.1.15,2013-02-09 21:12:00,
2013-02-09 15:17:00,49.2,31.8,30.23,East,98,0.0,5.0,51,0.00,,,0.00,Wunderground v.1.15,2013-02-09 21:17:00,
2013-02-09 15:22:00,49.1,31.7,30.23,NE,52,0.0,2.0,51,0.00,,,0.00,Wunderground v.1.15,2013-02-09 21:22:00,
2013-02-09 15:27:00,49.0,32.1,30.23,ESE,110,0.0,2.0,52,0.00,,,0.00,Wunderground v.1.15,2013-02-09 21:27:00,
2013-02-09 15:32:00,49.0,32.1,30.22,East,89,4.0,5.0,52,0.00,,,0.00,Wunderground v.1.15,2013-02-09 21:32:00,
2013-02-09 15:37:00,48.8,32.4,30.22,East,79,2.0,6.0,53,0.00,,,0.00,Wunderground v.1.15,2013-02-09 21:37:00,
2013-02-09 15:42:00,48.8,32.4,30.21,ESE,107,3.0,4.0,53,0.00,,,0.00,Wunderground v.1.15,2013-02-09 21:42:00,
2013-02-09 15:47:00,48.7,31.8,30.20,East,86,2.0,6.0,52,0.00,,,0.00,Wunderground v.1.15,2013-02-09 21:47:00,
2013-02-09 15:52:00,48.6,32.2,30.20,East,79,4.0,6.0,53,0.00,,,0.00,Wunderground v.1.15,2013-02-09 21:52:00,
2013-02-09 15:57:00,48.4,32.0,30.20,East,85,3.0,7.0,53,0.00,,,0.00,Wunderground v.1.15,2013-02-09 21:57:00,
2013-02-09 16:02:00,48.3,32.9,30.19,SE,131,3.0,5.0,55,0.00,,,0.00,Wunderground v.1.15,2013-02-09 22:02:00,
2013-02-09 16:07:00,48.3,31.9,30.20,East,92,3.0,7.0,53,0.00,,,0.00,Wunderground v.1.15,2013-02-09 22:07:00,
2013-02-09 16:12:00,48.3,31.9,30.20,ESE,120,3.0,7.0,53,0.00,,,0.00,Wunderground v.1.15,2013-02-09 22:12:00,
2013-02-09 16:17:00,48.3,32.4,30.19,ESE,118,2.0,9.0,54,0.00,,,0.00,Wunderground v.1.15,2013-02-09 22:17:00,
2013-02-09 16:22:00,48.3,32.4,30.20,SSE,148,3.0,4.0,54,0.00,,,0.00,Wunderground v.1.15,2013-02-09 22:22:00,
2013-02-09 16:27:00,48.2,32.3,30.20,ESE,103,4.0,6.0,54,0.00,,,0.00,Wunderground v.1.15,2013-02-09 22:27:00,
2013-02-09 16:32:00,48.1,32.2,30.20,ESE,106,2.0,5.0,54,0.00,,,0.00,Wunderground v.1.15,2013-02-09 22:32:00,
2013-02-09 16:37:00,48.1,32.2,30.20,East,98,1.0,7.0,54,0.00,,,0.00,Wunderground v.1.15,2013-02-09 22:37:00,
2013-02-09 16:42:00,48.0,32.1,30.20,ESE,108,5.0,6.0,54,0.00,,,0.00,Wunderground v.1.15,2013-02-09 22:42:00,
2013-02-09 16:47:00,47.9,32.0,30.20,East,91,1.0,6.0,54,0.00,,,0.00,Wunderground v.1.15,2013-02-09 22:47:00,
2013-02-09 16:52:00,47.7,32.3,30.20,ESE,110,1.0,2.0,55,0.00,,,0.00,Wunderground v.1.15,2013-02-09 22:52:00,
2013-02-09 16:57:00,47.5,32.6,30.20,ESE,118,0.0,3.0,56,0.00,,,0.00,Wunderground v.1.15,2013-02-09 22:57:00,
2013-02-09 17:02:00,47.2,32.3,30.20,East,94,2.0,5.0,56,0.00,,,0.00,Wunderground v.1.15,2013-02-09 23:02:00,
2013-02-09 17:07:00,46.9,32.0,30.19,SE,129,1.0,5.0,56,0.00,,,0.00,Wunderground v.1.15,2013-02-09 23:07:00,
2013-02-09 17:12:00,46.6,32.2,30.19,East,87,3.0,3.0,57,0.00,,,0.00,Wunderground v.1.15,2013-02-09 23:12:00,
2013-02-09 17:17:00,46.3,31.9,30.19,ESE,105,1.0,4.0,57,0.00,,,0.00,Wunderground v.1.15,2013-02-09 23:17:00,
2013-02-09 17:23:00,46.0,32.0,30.19,ESE,119,0.0,2.0,58,0.00,,,0.00,Wunderground v.1.15,2013-02-09 23:23:00,
2013-02-09 17:27:00,45.8,31.9,30.18,East,96,2.0,4.0,58,0.00,,,0.00,Wunderground v.1.15,2013-02-09 23:27:00,
2013-02-09 17:33:00,45.5,32.0,30.18,ESE,103,0.0,3.0,59,0.00,,,0.00,Wunderground v.1.15,2013-02-09 23:33:00,
2013-02-09 17:38:00,45.3,32.2,30.18,SE,129,2.0,3.0,60,0.00,,,0.00,Wunderground v.1.15,2013-02-09 23:38:00,
2013-02-09 17:43:00,45.0,32.3,30.18,East,98,0.0,2.0,61,0.00,,,0.00,Wunderground v.1.15,2013-02-09 23:43:00,
2013-02-09 17:48:00,44.8,32.2,30.18,East,91,1.0,2.0,61,0.00,,,0.00,Wunderground v.1.15,2013-02-09 23:48:00,
2013-02-09 17:53:00,44.7,32.5,30.17,ESE,110,1.0,5.0,62,0.00,,,0.00,Wunderground v.1.15,2013-02-09 23:53:00,
2013-02-09 17:58:00,44.5,32.3,30.17,ESE,117,1.0,5.0,62,0.00,,,0.00,Wunderground v.1.15,2013-02-09 23:58:00,
2013-02-09 18:03:00,44.3,32.5,30.17,ESE,116,0.0,3.0,63,0.00,,,0.00,Wunderground v.1.15,2013-02-10 00:03:00,
2013-02-09 18:08:00,44.3,32.5,30.17,ESE,120,1.0,5.0,63,0.00,,,0.00,Wunderground v.1.15,2013-02-10 00:08:00,
2013-02-09 18:13:00,44.2,32.4,30.16,East,94,4.0,4.0,63,0.00,,,0.00,Wunderground v.1.15,2013-02-10 00:13:00,
2013-02-09 18:18:00,44.3,32.5,30.16,SE,126,2.0,6.0,63,0.00,,,0.00,Wunderground v.1.15,2013-02-10 00:18:00,
2013-02-09 18:23:00,44.3,32.9,30.16,ENE,76,3.0,5.0,64,0.00,,,0.00,Wunderground v.1.15,2013-02-10 00:23:00,
2013-02-09 18:28:00,44.3,32.9,30.16,East,83,1.0,5.0,64,0.00,,,0.00,Wunderground v.1.15,2013-02-10 00:28:00,
2013-02-09 18:33:00,44.3,32.9,30.16,ESE,107,2.0,4.0,64,0.00,,,0.00,Wunderground v.1.15,2013-02-10 00:33:00,
2013-02-09 18:38:00,44.4,33.0,30.16,ESE,113,2.0,5.0,64,0.00,,,0.00,Wunderground v.1.15,2013-02-10 00:38:00,
2013-02-09 18:43:00,44.4,33.0,30.16,ESE,122,4.0,4.0,64,0.00,,,0.00,Wunderground v.1.15,2013-02-10 00:43:00,
2013-02-09 18:48:00,44.5,33.1,30.16,East,98,1.0,6.0,64,0.00,,,0.00,Wunderground v.1.15,2013-02-10 00:48:00,
2013-02-09 18:53:00,44.5,33.1,30.16,SE,130,1.0,2.0,64,0.00,,,0.00,Wunderground v.1.15,2013-02-10 00:53:00,
2013-02-09 18:58:00,44.4,33.4,30.16,ESE,117,1.0,2.0,65,0.00,,,0.00,Wunderground v.1.15,2013-02-10 00:58:00,
2013-02-09 19:03:00,44.2,33.2,30.16,SE,144,0.0,2.0,65,0.00,,,0.00,Wunderground v.1.15,2013-02-10 01:03:00,
2013-02-09 19:08:00,43.9,33.3,30.16,ESE,115,0.0,4.0,66,0.00,,,0.00,Wunderground v.1.15,2013-02-10 01:08:00,
2013-02-09 19:13:00,43.7,33.5,30.15,SE,143,5.0,5.0,67,0.00,,,0.00,Wunderground v.1.15,2013-02-10 01:13:00,
2013-02-09 19:18:00,43.8,33.2,30.16,South,186,0.0,5.0,66,0.00,,,0.00,Wunderground v.1.15,2013-02-10 01:18:00,
2013-02-09 19:23:00,43.8,33.6,30.15,SE,141,2.0,2.0,67,0.00,,,0.00,Wunderground v.1.15,2013-02-10 01:23:00,
2013-02-09 19:28:00,43.8,33.6,30.15,East,87,3.0,3.0,67,0.00,,,0.00,Wunderground v.1.15,2013-02-10 01:28:00,
2013-02-09 19:33:00,43.8,33.6,30.14,ENE,75,2.0,4.0,67,0.00,,,0.00,Wunderground v.1.15,2013-02-10 01:33:00,
2013-02-09 19:38:00,43.8,33.6,30.14,SE,139,2.0,5.0,67,0.00,,,0.00,Wunderground v.1.15,2013-02-10 01:38:00,
2013-02-09 19:43:00,43.9,33.6,30.14,SE,129,1.0,4.0,67,0.00,,,0.00,Wunderground v.1.15,2013-02-10 01:43:00,
2013-02-09 19:48:00,44.0,33.7,30.14,SE,132,4.0,4.0,67,0.00,,,0.00,Wunderground v.1.15,2013-02-10 01:48:00,
2013-02-09 19:53:00,44.0,33.7,30.14,ESE,103,1.0,6.0,67,0.00,,,0.00,Wunderground v.1.15,2013-02-10 01:53:00,
2013-02-09 19:58:00,44.1,33.8,30.14,SE,134,1.0,6.0,67,0.00,,,0.00,Wunderground v.1.15,2013-02-10 01:58:00,
2013-02-09 20:04:00,44.2,33.9,30.14,SSE,149,2.0,3.0,67,0.00,,,0.00,Wunderground v.1.15,2013-02-10 02:04:00,
2013-02-09 20:09:00,44.4,33.7,30.14,SSE,148,2.0,3.0,66,0.00,,,0.00,Wunderground v.1.15,2013-02-10 02:09:00,
2013-02-09 20:14:00,44.5,33.8,30.15,SE,131,1.0,3.0,66,0.00,,,0.00,Wunderground v.1.15,2013-02-10 02:14:00,
2013-02-09 20:19:00,44.5,33.8,30.14,SE,142,2.0,3.0,66,0.00,,,0.00,Wunderground v.1.15,2013-02-10 02:19:00,
2013-02-09 20:24:00,44.6,33.9,30.14,East,99,2.0,4.0,66,0.00,,,0.00,Wunderground v.1.15,2013-02-10 02:24:00,
2013-02-09 20:29:00,44.7,33.6,30.14,ESE,106,2.0,4.0,65,0.00,,,0.00,Wunderground v.1.15,2013-02-10 02:29:00,
2013-02-09 20:34:00,44.7,34.0,30.14,SSE,156,0.0,3.0,66,0.00,,,0.00,Wunderground v.1.15,2013-02-10 02:34:00,
2013-02-09 20:39:00,44.7,34.0,30.14,East,98,0.0,3.0,66,0.00,,,0.00,Wunderground v.1.15,2013-02-10 02:39:00,
2013-02-09 20:44:00,44.8,34.1,30.14,SE,124,1.0,4.0,66,0.00,,,0.00,Wunderground v.1.15,2013-02-10 02:44:00,
2013-02-09 20:49:00,44.8,34.1,30.14,ESE,120,0.0,4.0,66,0.00,,,0.00,Wunderground v.1.15,2013-02-10 02:49:00,
2013-02-09 20:54:00,44.8,33.7,30.14,ESE,111,0.0,2.0,65,0.00,,,0.00,Wunderground v.1.15,2013-02-10 02:54:00,
2013-02-09 20:59:00,44.9,33.8,30.14,SE,145,2.0,3.0,65,0.00,,,0.00,Wunderground v.1.15,2013-02-10 02:59:00,
2013-02-09 21:04:00,44.9,33.8,30.14,SE,142,1.0,4.0,65,0.00,,,0.00,Wunderground v.1.15,2013-02-10 03:04:00,
2013-02-09 21:09:00,44.9,33.8,30.14,SE,127,1.0,4.0,65,0.00,,,0.00,Wunderground v.1.15,2013-02-10 03:09:00,
2013-02-09 21:14:00,44.9,34.2,30.14,SE,133,2.0,3.0,66,0.00,,,0.00,Wunderground v.1.15,2013-02-10 03:14:00,
2013-02-09 21:19:00,44.9,34.2,30.14,SE,127,1.0,3.0,66,0.00,,,0.00,Wunderground v.1.15,2013-02-10 03:19:00,
2013-02-09 21:24:00,44.8,34.1,30.13,ESE,115,3.0,3.0,66,0.00,,,0.00,Wunderground v.1.15,2013-02-10 03:24:00,
2013-02-09 21:29:00,44.9,34.2,30.13,ESE,121,1.0,4.0,66,0.00,,,0.00,Wunderground v.1.15,2013-02-10 03:29:00,
2013-02-09 21:34:00,44.9,33.8,30.13,SSE,156,0.0,2.0,65,0.00,,,0.00,Wunderground v.1.15,2013-02-10 03:34:00,
2013-02-09 21:39:00,45.0,33.9,30.13,SSE,155,0.0,3.0,65,0.00,,,0.00,Wunderground v.1.15,2013-02-10 03:39:00,
2013-02-09 21:44:00,45.1,33.6,30.13,SSE,158,1.0,2.0,64,0.00,,,0.00,Wunderground v.1.15,2013-02-10 03:44:00,
2013-02-09 21:49:00,45.2,33.7,30.13,SE,135,0.0,3.0,64,0.00,,,0.00,Wunderground v.1.15,2013-02-10 03:49:00,
2013-02-09 21:54:00,45.2,33.7,30.13,SE,125,0.0,3.0,64,0.00,,,0.00,Wunderground v.1.15,2013-02-10 03:54:00,
2013-02-09 21:59:00,45.3,33.8,30.12,SE,128,1.0,4.0,64,0.00,,,0.00,Wunderground v.1.15,2013-02-10 03:59:00,
2013-02-09 22:04:00,45.3,34.2,30.12,ESE,106,0.0,3.0,65,0.00,,,0.00,Wunderground v.1.15,2013-02-10 04:04:00,
2013-02-09 22:09:00,45.3,33.8,30.12,SE,145,0.0,3.0,64,0.00,,,0.00,Wunderground v.1.15,2013-02-10 04:09:00,
2013-02-09 22:14:00,45.3,34.2,30.12,ESE,116,0.0,3.0,65,0.00,,,0.00,Wunderground v.1.15,2013-02-10 04:14:00,
2013-02-09 22:19:00,45.3,34.2,30.12,SE,137,2.0,3.0,65,0.00,,,0.00,Wunderground v.1.15,2013-02-10 04:19:00,
2013-02-09 22:24:00,45.3,34.2,30.12,East,96,0.0,2.0,65,0.00,,,0.00,Wunderground v.1.15,2013-02-10 04:24:00,
2013-02-09 22:29:00,45.3,33.8,30.12,ESE,108,1.0,2.0,64,0.00,,,0.00,Wunderground v.1.15,2013-02-10 04:29:00,
2013-02-09 22:34:00,45.2,34.1,30.11,SE,139,0.0,1.0,65,0.00,,,0.00,Wunderground v.1.15,2013-02-10 04:34:00,
2013-02-09 22:39:00,45.1,34.0,30.11,SE,136,1.0,1.0,65,0.00,,,0.00,Wunderground v.1.15,2013-02-10 04:39:00,
2013-02-09 22:44:00,45.3,34.2,30.11,SE,139,0.0,4.0,65,0.00,,,0.00,Wunderground v.1.15,2013-02-10 04:44:00,
2013-02-09 22:49:00,45.3,34.2,30.10,SE,137,1.0,4.0,65,0.00,,,0.00,Wunderground v.1.15,2013-02-10 04:49:00,
2013-02-09 22:54:00,45.3,33.8,30.10,SE,139,4.0,4.0,64,0.00,,,0.00,Wunderground v.1.15,2013-02-10 04:54:00,
2013-02-09 22:59:00,45.5,33.6,30.10,SSE,160,1.0,4.0,63,0.00,,,0.00,Wunderground v.1.15,2013-02-10 04:59:00,
2013-02-09 23:00:00,45.5,33.6,30.10,South,170,2.0,2.0,63,0.00,,,0.00,Wunderground v.1.15,2013-02-10 05:00:00,
2013-02-09 23:01:00,45.5,33.2,30.10,SSE,155,3.0,3.0,62,0.00,,,0.00,Wunderground v.1.15,2013-02-10 05:01:00,
2013-02-09 23:06:00,45.7,33.0,30.10,SE,141,3.0,4.0,61,0.00,,,0.00,Wunderground v.1.15,2013-02-10 05:06:00,
2013-02-09 23:11:00,45.8,33.1,30.10,SE,138,2.0,3.0,61,0.00,,,0.00,Wunderground v.1.15,2013-02-10 05:11:00,
2013-02-09 23:16:00,45.9,32.8,30.10,SSE,149,3.0,5.0,60,0.00,,,0.00,Wunderground v.1.15,2013-02-10 05:16:00,
2013-02-09 23:21:00,46.1,33.4,30.09,SSE,165,0.0,2.0,61,0.00,,,0.00,Wunderground v.1.15,2013-02-10 05:21:00,
2013-02-09 23:26:00,46.2,33.1,30.09,SSE,156,2.0,4.0,60,0.00,,,0.00,Wunderground v.1.15,2013-02-10 05:26:00,
2013-02-09 23:30:00,46.3,32.7,30.09,East,82,1.0,3.0,59,0.00,,,0.00,Wunderground v.1.15,2013-02-10 05:30:00,
2013-02-09 23:35:00,46.4,32.8,30.10,South,180,1.0,3.0,59,0.00,,,0.00,Wunderground v.1.15,2013-02-10 05:35:00,
2013-02-09 23:40:00,46.4,32.8,30.10,SSE,152,0.0,1.0,59,0.00,,,0.00,Wunderground v.1.15,2013-02-10 05:40:00,
2013-02-09 23:45:00,46.5,32.5,30.09,South,170,3.0,5.0,58,0.00,,,0.00,Wunderground v.1.15,2013-02-10 05:45:00,
2013-02-09 23:50:00,46.6,32.6,30.08,SE,143,4.0,5.0,58,0.00,,,0.00,Wunderground v.1.15,2013-02-10 05:50:00,
2013-02-09 23:55:00,46.6,32.6,30.08,SSE,165,3.0,6.0,58,0.00,,,0.00,Wunderground v.1.15,2013-02-10 05:55:00,